{"data":{"norad_id":56695,"epoch":"2026-05-25T05:18:53.604000Z","epoch_age_seconds":56076,"freshness":"FRESH","line1":"1 56695U 23067H   26145.22145375 -.00000337  00000+0 -27282-5 0  9996","line2":"2 56695  43.0016 209.1325 0001092 278.1660  81.9068 15.27576402167286","mean_motion":15.27576402,"eccentricity":0.0001092,"inclination_deg":43.0016,"raan_deg":209.1325,"arg_perigee_deg":278.166,"mean_anomaly_deg":81.9068,"bstar":-2.7282e-6,"rev_number":16728,"period_min":94.266970746253,"perigee_km":482.31062706899,"apogee_km":483.80911246535,"semimajor_km":6861.1968697672,"source":"CELESTRAK","updated_at":"2026-05-25T13:38:18.120270Z"}}